Darstellungsparameter: Aktuell verwendete Einstellungen:
Skalierung der Graphiken ... ?
xyx+y,   Skalierungsfaktor:      Skalierung: Modus: x, Faktor: 1
Darstellungszeitraum ... ?
Vom - - bis: - -   Zeitraum: 10.11.2019 - 10.11.2019
Min/Max/Avg-Anzeige ... ?
Zeige MMA aktuell
Zeige MMA Monat
Zeige MMA alles
Zeige --A aktuell
Zeige --A Monat
Zeige --A alles
Keine MMA-Anzeige
MMA:
Average (ber die Originaldaten)
MMA-Basis: 10.11.2019 - 10.11.2019
Quicknavigation für Darstellung... ?
Tage:      1T, 2T, 3T, 5T -1T -2T -3T -5T +1T +2T +3T +5T
Wochen: 1W, 2W, 3W -1W -2W -3W +1W +2W +3W
Monate: 1M, 3M, 6M -1M -3M -6M +1M +3M +6M
Jahre:    1J, 3J, 5J, 10J -1J -3J -5J -10J +1J +3J +5J +10J
Nutze für die Darstellung ... ?
Originaldaten oder Mittelwerte auf ...
Stundenbasis Tagesbasis Wochenbasis
Monatsbasis Jahresbasis      Datenbasis: Original-Daten
Darstellen als:
Statistik (Auto) Statistik J:M      Darstellung:
Zur Graphik,    zurück zur Übersicht aller Sensoren.
 
Tabellarische Datenbersicht: ?
 
Sensor: Nr:Datum:Temp:Abs-Feuchte:Windchill:Wind:
Aussen-T/F 1 10-11-2019 00:00:00 1.6 C 5.19 g/m*3 1.6 C 0 km/h
2 10-11-2019 00:05:00 1.6 C 5.19 g/m*3 1.6 C 0 km/h
3 10-11-2019 00:10:00 1.4 C 5.07 g/m*3 1.4 C 0 km/h
4 10-11-2019 00:15:00 1.4 C 5.07 g/m*3 1.4 C 0 km/h
5 10-11-2019 00:20:00 1.3 C 5.03 g/m*3 1.3 C 0 km/h
6 10-11-2019 00:25:00 1.2 C 5.05 g/m*3 1.2 C 0 km/h
7 10-11-2019 00:30:00 1.2 C 5.05 g/m*3 1.2 C 0 km/h
8 10-11-2019 00:35:00 1.1 C 4.96 g/m*3 1.1 C 0 km/h
9 10-11-2019 00:40:00 1.1 C 5.02 g/m*3 1.1 C 0 km/h
10 10-11-2019 00:45:00 1.1 C 5.02 g/m*3 1.1 C 0 km/h
11 10-11-2019 00:50:00 1.1 C 5.02 g/m*3 1.1 C 0 km/h
12 10-11-2019 00:55:00 1 C 4.98 g/m*3 1 C 0 km/h
13 10-11-2019 01:00:00 1 C 4.98 g/m*3 1 C 0 km/h
14 10-11-2019 01:05:00 0.9 C 4.95 g/m*3 0.9 C 0 km/h
15 10-11-2019 01:10:00 1 C 4.98 g/m*3 1 C 0 km/h
16 10-11-2019 01:15:00 1.1 C 5.02 g/m*3 1.1 C 0 km/h
17 10-11-2019 01:20:00 1.2 C 5.05 g/m*3 1.2 C 0 km/h
18 10-11-2019 01:25:00 1.3 C 5.09 g/m*3 1.3 C 0 km/h
19 10-11-2019 01:30:00 1.4 C 5.12 g/m*3 1.4 C 0 km/h
20 10-11-2019 01:35:00 1.5 C 5.21 g/m*3 1.5 C 0 km/h
21 10-11-2019 01:40:00 1.6 C 5.25 g/m*3 1.6 C 0 km/h
22 10-11-2019 01:45:00 1.6 C 5.25 g/m*3 1.6 C 0 km/h
23 10-11-2019 01:50:00 1.6 C 5.25 g/m*3 1.6 C 0 km/h
24 10-11-2019 01:55:00 1.6 C 5.25 g/m*3 1.6 C 0 km/h
25 10-11-2019 02:00:00 1.6 C 5.25 g/m*3 1.6 C 0 km/h
Sensor: Nr:Datum:Temp:Abs-Feuchte:Windchill:Wind:
Aussen-T/F 26 10-11-2019 02:05:00 1.7 C 5.23 g/m*3 1.7 C 0 km/h
27 10-11-2019 02:10:00 1.7 C 5.23 g/m*3 1.7 C 0 km/h
28 10-11-2019 02:15:00 1.7 C 5.23 g/m*3 1.7 C 0 km/h
29 10-11-2019 02:20:00 1.7 C 5.23 g/m*3 1.7 C 0 km/h
30 10-11-2019 02:25:00 1.7 C 5.23 g/m*3 1.7 C 0 km/h
31 10-11-2019 02:30:00 1.6 C 5.25 g/m*3 1.6 C 0 km/h
32 10-11-2019 02:35:00 1.6 C 5.25 g/m*3 1.6 C 0 km/h
33 10-11-2019 02:40:00 1.6 C 5.25 g/m*3 1.6 C 0 km/h
34 10-11-2019 02:45:00 1.6 C 5.25 g/m*3 1.6 C 0 km/h
35 10-11-2019 02:50:00 1.7 C 5.28 g/m*3 1.7 C 0 km/h
36 10-11-2019 02:55:00 1.7 C 5.28 g/m*3 1.7 C 0 km/h
37 10-11-2019 03:00:00 1.7 C 5.28 g/m*3 1.7 C 0 km/h
38 10-11-2019 03:05:00 1.7 C 5.28 g/m*3 1.7 C 0 km/h
39 10-11-2019 03:10:00 1.7 C 5.28 g/m*3 1.7 C 0 km/h
40 10-11-2019 03:15:00 1.7 C 5.28 g/m*3 1.7 C 0 km/h
41 10-11-2019 03:20:00 1.6 C 5.25 g/m*3 1.6 C 0 km/h
42 10-11-2019 03:25:00 1.6 C 5.25 g/m*3 1.6 C 0 km/h
43 10-11-2019 03:30:00 1.6 C 5.25 g/m*3 1.6 C 0 km/h
44 10-11-2019 03:35:00 1.6 C 5.25 g/m*3 1.6 C 0 km/h
45 10-11-2019 03:40:00 1.6 C 5.25 g/m*3 1.6 C 0 km/h
46 10-11-2019 03:45:00 1.5 C 5.21 g/m*3 1.5 C 1.6 km/h
47 10-11-2019 03:50:00 1.4 C 5.17 g/m*3 1.4 C 1.6 km/h
48 10-11-2019 03:55:00 1.4 C 5.17 g/m*3 1.4 C 3.2 km/h
49 10-11-2019 04:00:00 1.3 C 5.14 g/m*3 1.3 C 1.6 km/h
50 10-11-2019 04:05:00 1.3 C 5.14 g/m*3 1.3 C 0 km/h
Sensor: Nr:Datum:Temp:Abs-Feuchte:Windchill:Wind:
Aussen-T/F 51 10-11-2019 04:10:00 1.3 C 5.14 g/m*3 1.3 C 3.2 km/h
52 10-11-2019 04:15:00 1.3 C 5.14 g/m*3 1.3 C 1.6 km/h
53 10-11-2019 04:20:00 1.2 C 5.1 g/m*3 1.2 C 3.2 km/h
54 10-11-2019 04:25:00 1.2 C 5.1 g/m*3 1.2 C 0 km/h
55 10-11-2019 04:30:00 1.3 C 5.14 g/m*3 1.3 C 0 km/h
56 10-11-2019 04:35:00 1.3 C 5.14 g/m*3 1.3 C 0 km/h
57 10-11-2019 04:40:00 1.3 C 5.14 g/m*3 1.3 C 0 km/h
58 10-11-2019 04:45:00 1.3 C 5.14 g/m*3 1.3 C 0 km/h
59 10-11-2019 04:50:00 1.3 C 5.14 g/m*3 1.3 C 0 km/h
60 10-11-2019 04:55:00 1.3 C 5.14 g/m*3 1.3 C 0 km/h
61 10-11-2019 05:00:00 1.3 C 5.14 g/m*3 1.3 C 0 km/h
62 10-11-2019 05:05:00 1.3 C 5.14 g/m*3 1.3 C 0 km/h
63 10-11-2019 05:10:00 1.3 C 5.14 g/m*3 1.3 C 0 km/h
64 10-11-2019 05:15:00 1.3 C 5.14 g/m*3 1.3 C 0 km/h
65 10-11-2019 05:20:00 1.3 C 5.14 g/m*3 1.3 C 0 km/h
66 10-11-2019 05:25:00 1.4 C 5.17 g/m*3 1.4 C 0 km/h
67 10-11-2019 05:30:00 1.4 C 5.17 g/m*3 1.4 C 0 km/h
68 10-11-2019 05:35:00 1.4 C 5.17 g/m*3 1.4 C 0 km/h
69 10-11-2019 05:40:00 1.4 C 5.17 g/m*3 1.4 C 0 km/h
70 10-11-2019 05:45:00 1.4 C 5.17 g/m*3 1.4 C 0 km/h
71 10-11-2019 05:50:00 1.5 C 5.21 g/m*3 1.5 C 0 km/h
72 10-11-2019 05:55:00 1.6 C 5.25 g/m*3 1.6 C 0 km/h
73 10-11-2019 06:00:00 1.7 C 5.28 g/m*3 1.7 C 0 km/h
74 10-11-2019 06:05:00 1.7 C 5.28 g/m*3 1.7 C 0 km/h
75 10-11-2019 06:10:00 1.7 C 5.28 g/m*3 1.7 C 0 km/h
Sensor: Nr:Datum:Temp:Abs-Feuchte:Windchill:Wind:
Aussen-T/F 76 10-11-2019 06:15:00 1.7 C 5.28 g/m*3 1.7 C 0 km/h
77 10-11-2019 06:20:00 1.8 C 5.32 g/m*3 1.8 C 3.2 km/h
78 10-11-2019 06:25:00 1.8 C 5.32 g/m*3 1.8 C 3.2 km/h
79 10-11-2019 06:30:00 1.7 C 5.28 g/m*3 1.7 C 4.8 km/h
80 10-11-2019 06:35:00 1.7 C 5.28 g/m*3 1.7 C 4.8 km/h
81 10-11-2019 06:40:00 1.7 C 5.28 g/m*3 1.7 C 4.8 km/h
82 10-11-2019 06:45:00 1.7 C 5.28 g/m*3 -0.22 C 6.4 km/h
83 10-11-2019 06:50:00 1.7 C 5.28 g/m*3 1.7 C 4.8 km/h
84 10-11-2019 06:55:00 1.6 C 5.25 g/m*3 1.6 C 3.2 km/h
85 10-11-2019 07:00:00 1.6 C 5.25 g/m*3 1.6 C 3.2 km/h
86 10-11-2019 07:05:00 1.6 C 5.25 g/m*3 1.6 C 3.2 km/h
87 10-11-2019 07:10:00 1.7 C 5.28 g/m*3 1.7 C 3.2 km/h
88 10-11-2019 07:15:00 1.6 C 5.25 g/m*3 1.6 C 3.2 km/h
89 10-11-2019 07:20:00 1.6 C 5.25 g/m*3 1.6 C 3.2 km/h
90 10-11-2019 07:25:00 1.6 C 5.25 g/m*3 1.6 C 3.2 km/h
91 10-11-2019 07:30:00 1.6 C 5.25 g/m*3 1.6 C 0 km/h
92 10-11-2019 07:35:00 1.6 C 5.25 g/m*3 1.6 C 1.6 km/h
93 10-11-2019 07:40:00 1.6 C 5.25 g/m*3 1.6 C 1.6 km/h
94 10-11-2019 07:45:00 1.6 C 5.25 g/m*3 1.6 C 0 km/h
95 10-11-2019 07:50:00 1.6 C 5.25 g/m*3 1.6 C 0 km/h
96 10-11-2019 07:55:00 1.7 C 5.28 g/m*3 1.7 C 0 km/h
97 10-11-2019 08:00:00 1.7 C 5.28 g/m*3 1.7 C 0 km/h
98 10-11-2019 08:05:00 1.7 C 5.28 g/m*3 1.7 C 0 km/h
99 10-11-2019 08:10:00 1.7 C 5.28 g/m*3 1.7 C 0 km/h
100 10-11-2019 08:15:00 1.8 C 5.32 g/m*3 1.8 C 0 km/h
Sensor: Nr:Datum:Temp:Abs-Feuchte:Windchill:Wind:
Aussen-T/F 101 10-11-2019 08:20:00 1.8 C 5.37 g/m*3 1.8 C 1.6 km/h
102 10-11-2019 08:25:00 1.8 C 5.32 g/m*3 1.8 C 1.6 km/h
103 10-11-2019 08:30:00 1.8 C 5.37 g/m*3 1.8 C 1.6 km/h
104 10-11-2019 08:35:00 1.9 C 5.41 g/m*3 1.9 C 0 km/h
105 10-11-2019 08:40:00 1.9 C 5.41 g/m*3 1.9 C 0 km/h
106 10-11-2019 08:45:00 1.9 C 5.41 g/m*3 1.9 C 0 km/h
107 10-11-2019 08:50:00 1.9 C 5.35 g/m*3 1.9 C 1.6 km/h
108 10-11-2019 08:55:00 1.9 C 5.35 g/m*3 1.9 C 0 km/h
109 10-11-2019 09:00:00 2 C 5.39 g/m*3 2 C 0 km/h
110 10-11-2019 09:05:00 2.1 C 5.43 g/m*3 2.1 C 0 km/h
111 10-11-2019 09:10:00 2.1 C 5.48 g/m*3 2.1 C 0 km/h
112 10-11-2019 09:15:00 2.2 C 5.52 g/m*3 2.2 C 0 km/h
113 10-11-2019 09:20:00 2.2 C 5.52 g/m*3 2.2 C 1.6 km/h
114 10-11-2019 09:25:00 2.2 C 5.52 g/m*3 2.2 C 1.6 km/h
115 10-11-2019 09:30:00 2.3 C 5.56 g/m*3 2.3 C 1.6 km/h
116 10-11-2019 09:35:00 2.3 C 5.56 g/m*3 2.3 C 0 km/h
117 10-11-2019 09:40:00 2.4 C 5.6 g/m*3 2.4 C 0 km/h
118 10-11-2019 09:45:00 2.4 C 5.6 g/m*3 2.4 C 0 km/h
119 10-11-2019 09:50:00 2.4 C 5.54 g/m*3 2.4 C 1.6 km/h
120 10-11-2019 09:55:00 2.4 C 5.54 g/m*3 2.4 C 1.6 km/h
121 10-11-2019 10:00:00 2.5 C 5.63 g/m*3 2.5 C 3.2 km/h
122 10-11-2019 10:05:00 2.6 C 5.67 g/m*3 2.6 C 3.2 km/h
123 10-11-2019 10:10:00 2.6 C 5.67 g/m*3 2.6 C 1.6 km/h
124 10-11-2019 10:15:00 2.6 C 5.67 g/m*3 2.6 C 1.6 km/h
125 10-11-2019 10:20:00 2.6 C 5.67 g/m*3 2.6 C 0 km/h
Sensor: Nr:Datum:Temp:Abs-Feuchte:Windchill:Wind:
Aussen-T/F 126 10-11-2019 10:25:00 2.6 C 5.67 g/m*3 2.6 C 0 km/h
127 10-11-2019 10:30:00 2.7 C 5.71 g/m*3 2.7 C 0 km/h
128 10-11-2019 10:35:00 2.7 C 5.71 g/m*3 2.7 C 0 km/h
129 10-11-2019 10:40:00 2.7 C 5.71 g/m*3 2.7 C 0 km/h
130 10-11-2019 10:45:00 2.7 C 5.71 g/m*3 2.7 C 0 km/h
131 10-11-2019 10:50:00 2.8 C 5.75 g/m*3 2.8 C 1.6 km/h
132 10-11-2019 10:55:00 2.9 C 5.79 g/m*3 2.9 C 0 km/h
133 10-11-2019 11:00:00 2.9 C 5.79 g/m*3 2.9 C 0 km/h
134 10-11-2019 11:05:00 3 C 5.83 g/m*3 3 C 1.6 km/h
135 10-11-2019 11:10:00 3.1 C 5.87 g/m*3 3.1 C 0 km/h
136 10-11-2019 11:15:00 3.1 C 5.87 g/m*3 3.1 C 1.6 km/h
137 10-11-2019 11:20:00 3.1 C 5.87 g/m*3 3.1 C 0 km/h
138 10-11-2019 11:25:00 3.2 C 5.91 g/m*3 3.2 C 3.2 km/h
139 10-11-2019 11:30:00 3.2 C 5.91 g/m*3 3.2 C 4.8 km/h
140 10-11-2019 11:35:00 3.3 C 5.95 g/m*3 3.3 C 0 km/h
141 10-11-2019 11:40:00 3.4 C 5.99 g/m*3 3.4 C 3.2 km/h
142 10-11-2019 11:45:00 3.4 C 5.99 g/m*3 3.4 C 3.2 km/h
143 10-11-2019 11:50:00 3.4 C 5.99 g/m*3 3.4 C 4.8 km/h
144 10-11-2019 11:55:00 3.3 C 5.95 g/m*3 3.3 C 4.8 km/h
145 10-11-2019 12:00:00 3.3 C 5.88 g/m*3 3.3 C 3.2 km/h
146 10-11-2019 12:05:00 3.3 C 5.88 g/m*3 3.3 C 4.8 km/h
147 10-11-2019 12:10:00 3.3 C 5.88 g/m*3 3.3 C 3.2 km/h
148 10-11-2019 12:15:00 3.3 C 5.88 g/m*3 3.3 C 4.8 km/h
149 10-11-2019 12:20:00 3.3 C 5.88 g/m*3 3.3 C 4.8 km/h
150 10-11-2019 12:25:00 3.3 C 5.88 g/m*3 3.3 C 4.8 km/h
Sensor: Nr:Datum:Temp:Abs-Feuchte:Windchill:Wind:
Aussen-T/F 151 10-11-2019 12:30:00 3.4 C 5.92 g/m*3 1.75 C 6.4 km/h
152 10-11-2019 12:35:00 3.4 C 5.92 g/m*3 3.4 C 4.8 km/h
153 10-11-2019 12:40:00 3.5 C 5.96 g/m*3 3.5 C 4.8 km/h
154 10-11-2019 12:45:00 3.5 C 5.96 g/m*3 1.86 C 6.4 km/h
155 10-11-2019 12:50:00 3.6 C 5.94 g/m*3 1.46 C 8.1 km/h
156 10-11-2019 12:55:00 3.6 C 5.94 g/m*3 3.6 C 4.8 km/h
157 10-11-2019 13:00:00 3.6 C 5.94 g/m*3 3.6 C 4.8 km/h
158 10-11-2019 13:05:00 3.6 C 5.94 g/m*3 3.6 C 4.8 km/h
159 10-11-2019 13:10:00 3.7 C 5.98 g/m*3 2.09 C 6.4 km/h
160 10-11-2019 13:15:00 3.7 C 5.92 g/m*3 3.7 C 4.8 km/h
161 10-11-2019 13:20:00 3.8 C 5.96 g/m*3 3.8 C 4.8 km/h
162 10-11-2019 13:25:00 3.8 C 5.96 g/m*3 3.8 C 4.8 km/h
163 10-11-2019 13:30:00 3.9 C 6 g/m*3 3.9 C 3.2 km/h
164 10-11-2019 13:35:00 4 C 6.04 g/m*3 4 C 0 km/h
165 10-11-2019 13:40:00 4 C 6.04 g/m*3 4 C 4.8 km/h
166 10-11-2019 13:45:00 4.1 C 6.08 g/m*3 4.1 C 4.8 km/h
167 10-11-2019 13:50:00 4.1 C 6.02 g/m*3 4.1 C 3.2 km/h
168 10-11-2019 13:55:00 4.1 C 6.02 g/m*3 4.1 C 4.8 km/h
169 10-11-2019 14:00:00 4.2 C 6.06 g/m*3 4.2 C 4.8 km/h
170 10-11-2019 14:05:00 4.2 C 6.06 g/m*3 4.2 C 3.2 km/h
171 10-11-2019 14:10:00 4.2 C 6.06 g/m*3 4.2 C 4.8 km/h
172 10-11-2019 14:15:00 4.2 C 6.06 g/m*3 4.2 C 4.8 km/h
173 10-11-2019 14:20:00 4.2 C 5.99 g/m*3 4.2 C 4.8 km/h
174 10-11-2019 14:25:00 4.3 C 6.1 g/m*3 4.3 C 4.8 km/h
175 10-11-2019 14:30:00 4.3 C 6.03 g/m*3 4.3 C 3.2 km/h
Sensor: Nr:Datum:Temp:Abs-Feuchte:Windchill:Wind:
Aussen-T/F 176 10-11-2019 14:35:00 4.3 C 6.03 g/m*3 4.3 C 3.2 km/h
177 10-11-2019 14:40:00 4.4 C 6.07 g/m*3 4.4 C 3.2 km/h
178 10-11-2019 14:45:00 4.4 C 6.07 g/m*3 4.4 C 0 km/h
179 10-11-2019 14:50:00 4.4 C 6.07 g/m*3 4.4 C 1.6 km/h
180 10-11-2019 14:55:00 4.4 C 6.07 g/m*3 4.4 C 0 km/h
181 10-11-2019 15:00:00 4.5 C 6.11 g/m*3 4.5 C 3.2 km/h
182 10-11-2019 15:05:00 4.6 C 6.15 g/m*3 4.6 C 3.2 km/h
183 10-11-2019 15:10:00 4.6 C 6.15 g/m*3 4.6 C 0 km/h
184 10-11-2019 15:15:00 4.7 C 6.19 g/m*3 4.7 C 3.2 km/h
185 10-11-2019 15:20:00 4.7 C 6.19 g/m*3 4.7 C 3.2 km/h
186 10-11-2019 15:25:00 4.6 C 6.15 g/m*3 4.6 C 1.6 km/h
187 10-11-2019 15:30:00 4.7 C 6.19 g/m*3 4.7 C 0 km/h
188 10-11-2019 15:35:00 4.7 C 6.19 g/m*3 4.7 C 0 km/h
189 10-11-2019 15:40:00 4.7 C 6.19 g/m*3 4.7 C 0 km/h
190 10-11-2019 15:45:00 4.7 C 6.19 g/m*3 4.7 C 3.2 km/h
191 10-11-2019 15:50:00 4.7 C 6.13 g/m*3 4.7 C 4.8 km/h
192 10-11-2019 15:55:00 4.7 C 6.13 g/m*3 4.7 C 0 km/h
193 10-11-2019 16:00:00 4.7 C 6.13 g/m*3 4.7 C 0 km/h
194 10-11-2019 16:05:00 4.7 C 6.13 g/m*3 4.7 C 1.6 km/h
195 10-11-2019 16:10:00 4.6 C 6.09 g/m*3 4.6 C 3.2 km/h
196 10-11-2019 16:15:00 4.6 C 6.09 g/m*3 4.6 C 3.2 km/h
197 10-11-2019 16:20:00 4.6 C 6.09 g/m*3 4.6 C 1.6 km/h
198 10-11-2019 16:25:00 4.6 C 6.09 g/m*3 4.6 C 0 km/h
199 10-11-2019 16:30:00 4.6 C 6.09 g/m*3 4.6 C 0 km/h
200 10-11-2019 16:35:00 4.6 C 6.09 g/m*3 4.6 C 0 km/h
Sensor: Nr:Datum:Temp:Abs-Feuchte:Windchill:Wind:
Aussen-T/F 201 10-11-2019 16:40:00 4.6 C 6.09 g/m*3 4.6 C 1.6 km/h
202 10-11-2019 16:45:00 4.5 C 6.05 g/m*3 4.5 C 3.2 km/h
203 10-11-2019 16:50:00 4.5 C 6.05 g/m*3 4.5 C 1.6 km/h
204 10-11-2019 16:55:00 4.4 C 6.01 g/m*3 4.4 C 1.6 km/h
205 10-11-2019 17:00:00 4.4 C 6.07 g/m*3 4.4 C 1.6 km/h
206 10-11-2019 17:05:00 4.4 C 6.07 g/m*3 4.4 C 0 km/h
207 10-11-2019 17:10:00 4.4 C 6.07 g/m*3 4.4 C 1.6 km/h
208 10-11-2019 17:15:00 4.4 C 6.07 g/m*3 4.4 C 0 km/h
209 10-11-2019 17:20:00 4.4 C 6.07 g/m*3 4.4 C 0 km/h
210 10-11-2019 17:25:00 4.3 C 6.03 g/m*3 4.3 C 3.2 km/h
211 10-11-2019 17:30:00 4.3 C 6.03 g/m*3 4.3 C 1.6 km/h
212 10-11-2019 17:35:00 4.4 C 6.07 g/m*3 4.4 C 0 km/h
213 10-11-2019 17:40:00 4.4 C 6.07 g/m*3 4.4 C 3.2 km/h
214 10-11-2019 17:45:00 4.3 C 6.03 g/m*3 4.3 C 1.6 km/h
215 10-11-2019 17:50:00 4.3 C 6.03 g/m*3 4.3 C 0 km/h
216 10-11-2019 17:55:00 4.3 C 6.03 g/m*3 4.3 C 1.6 km/h
217 10-11-2019 18:00:00 4.3 C 6.03 g/m*3 4.3 C 0 km/h
218 10-11-2019 18:05:00 4.3 C 6.03 g/m*3 4.3 C 0 km/h
219 10-11-2019 18:10:00 4.3 C 6.03 g/m*3 4.3 C 0 km/h
220 10-11-2019 18:15:00 4.3 C 6.1 g/m*3 4.3 C 0 km/h
221 10-11-2019 18:20:00 4.3 C 6.1 g/m*3 4.3 C 0 km/h
222 10-11-2019 18:25:00 4.3 C 6.1 g/m*3 4.3 C 0 km/h
223 10-11-2019 18:30:00 4.3 C 6.1 g/m*3 4.3 C 4.8 km/h
224 10-11-2019 18:35:00 4.3 C 6.1 g/m*3 4.3 C 4.8 km/h
225 10-11-2019 18:40:00 4.3 C 6.1 g/m*3 4.3 C 3.2 km/h
Sensor: Nr:Datum:Temp:Abs-Feuchte:Windchill:Wind:
Aussen-T/F 226 10-11-2019 18:45:00 4.2 C 6.06 g/m*3 4.2 C 1.6 km/h
227 10-11-2019 18:50:00 4.2 C 6.06 g/m*3 4.2 C 0 km/h
228 10-11-2019 18:55:00 4.2 C 6.06 g/m*3 4.2 C 0 km/h
229 10-11-2019 19:00:00 4.2 C 6.06 g/m*3 4.2 C 4.8 km/h
230 10-11-2019 19:05:00 4.2 C 6.06 g/m*3 4.2 C 1.6 km/h
231 10-11-2019 19:10:00 4.2 C 6.06 g/m*3 4.2 C 3.2 km/h
232 10-11-2019 19:15:00 4.2 C 6.06 g/m*3 4.2 C 4.8 km/h
233 10-11-2019 19:20:00 4.1 C 6.02 g/m*3 4.1 C 0 km/h
234 10-11-2019 19:25:00 4.1 C 6.02 g/m*3 4.1 C 0 km/h
235 10-11-2019 19:30:00 4.1 C 6.02 g/m*3 4.1 C 0 km/h
236 10-11-2019 19:35:00 4.1 C 6.02 g/m*3 4.1 C 0 km/h
237 10-11-2019 19:40:00 4.1 C 6.02 g/m*3 4.1 C 0 km/h
238 10-11-2019 19:45:00 4.1 C 6.02 g/m*3 4.1 C 0 km/h
239 10-11-2019 19:50:00 4.2 C 6.06 g/m*3 4.2 C 1.6 km/h
240 10-11-2019 19:55:00 4.2 C 6.12 g/m*3 4.2 C 3.2 km/h
241 10-11-2019 20:00:00 4.2 C 6.12 g/m*3 4.2 C 0 km/h
242 10-11-2019 20:05:00 4.2 C 6.12 g/m*3 4.2 C 0 km/h
243 10-11-2019 20:10:00 4.2 C 6.12 g/m*3 4.2 C 0 km/h
244 10-11-2019 20:15:00 4.2 C 6.12 g/m*3 4.2 C 1.6 km/h
245 10-11-2019 20:20:00 4.2 C 6.12 g/m*3 4.2 C 0 km/h
246 10-11-2019 20:25:00 4.2 C 6.12 g/m*3 4.2 C 0 km/h
247 10-11-2019 20:30:00 4.3 C 6.16 g/m*3 4.3 C 0 km/h
248 10-11-2019 20:35:00 4.3 C 6.16 g/m*3 4.3 C 1.6 km/h
249 10-11-2019 20:40:00 4.3 C 6.16 g/m*3 4.3 C 0 km/h
250 10-11-2019 20:45:00 4.3 C 6.16 g/m*3 4.3 C 0 km/h
Sensor: Nr:Datum:Temp:Abs-Feuchte:Windchill:Wind:
Aussen-T/F 251 10-11-2019 20:50:00 4.3 C 6.16 g/m*3 4.3 C 0 km/h
252 10-11-2019 20:55:00 4.3 C 6.16 g/m*3 4.3 C 0 km/h
253 10-11-2019 21:00:00 4.3 C 6.16 g/m*3 4.3 C 0 km/h
254 10-11-2019 21:05:00 4.3 C 6.16 g/m*3 4.3 C 0 km/h
255 10-11-2019 21:10:00 4.3 C 6.16 g/m*3 4.3 C 0 km/h
256 10-11-2019 21:15:00 4.3 C 6.16 g/m*3 4.3 C 0 km/h
257 10-11-2019 21:20:00 4.3 C 6.16 g/m*3 4.3 C 1.6 km/h
258 10-11-2019 21:25:00 4.3 C 6.16 g/m*3 4.3 C 1.6 km/h
259 10-11-2019 21:30:00 4.3 C 6.16 g/m*3 4.3 C 0 km/h
260 10-11-2019 21:35:00 4.3 C 6.16 g/m*3 4.3 C 0 km/h
261 10-11-2019 21:40:00 4.3 C 6.16 g/m*3 4.3 C 0 km/h
262 10-11-2019 21:45:00 4.3 C 6.16 g/m*3 4.3 C 0 km/h
263 10-11-2019 21:50:00 4.3 C 6.16 g/m*3 4.3 C 0 km/h
264 10-11-2019 21:55:00 4.3 C 6.16 g/m*3 4.3 C 0 km/h
265 10-11-2019 22:00:00 4.3 C 6.16 g/m*3 4.3 C 0 km/h
266 10-11-2019 22:05:00 4.3 C 6.16 g/m*3 4.3 C 0 km/h
267 10-11-2019 22:10:00 4.2 C 6.12 g/m*3 4.2 C 0 km/h
268 10-11-2019 22:15:00 4.2 C 6.12 g/m*3 4.2 C 0 km/h
269 10-11-2019 22:20:00 4.2 C 6.12 g/m*3 4.2 C 0 km/h
270 10-11-2019 22:25:00 4.2 C 6.12 g/m*3 4.2 C 0 km/h
271 10-11-2019 22:30:00 4.2 C 6.12 g/m*3 4.2 C 0 km/h
272 10-11-2019 22:35:00 4.3 C 6.16 g/m*3 4.3 C 0 km/h
273 10-11-2019 22:40:00 4.3 C 6.16 g/m*3 4.3 C 0 km/h
274 10-11-2019 22:45:00 4.3 C 6.16 g/m*3 4.3 C 0 km/h
275 10-11-2019 22:50:00 4.4 C 6.2 g/m*3 4.4 C 0 km/h
Sensor: Nr:Datum:Temp:Abs-Feuchte:Windchill:Wind:
Aussen-T/F 276 10-11-2019 22:55:00 4.4 C 6.2 g/m*3 4.4 C 0 km/h
277 10-11-2019 23:00:00 4.4 C 6.2 g/m*3 4.4 C 0 km/h
278 10-11-2019 23:05:00 4.4 C 6.2 g/m*3 4.4 C 0 km/h
279 10-11-2019 23:10:00 4.4 C 6.2 g/m*3 4.4 C 1.6 km/h
280 10-11-2019 23:15:00 4.4 C 6.14 g/m*3 4.4 C 0 km/h
281 10-11-2019 23:20:00 4.4 C 6.14 g/m*3 4.4 C 0 km/h
282 10-11-2019 23:25:00 4.3 C 6.1 g/m*3 4.3 C 0 km/h
283 10-11-2019 23:30:00 4.3 C 6.1 g/m*3 4.3 C 0 km/h
284 10-11-2019 23:35:00 4.3 C 6.1 g/m*3 4.3 C 0 km/h
285 10-11-2019 23:40:00 4.4 C 6.14 g/m*3 4.4 C 0 km/h
286 10-11-2019 23:45:00 4.4 C 6.14 g/m*3 4.4 C 0 km/h
287 10-11-2019 23:50:00 4.4 C 6.14 g/m*3 4.4 C 0 km/h
288 10-11-2019 23:55:00 4.3 C 6.1 g/m*3 4.3 C 4.8 km/h

Legende:
   Min
   Max


Maximal/Minimal-Werte vom 10.11.2019 - 10.11.2019

Sensor Min Max Avg
Temp
(Aussen-T/F)
0.9 °C
10-11-2019  01:05:00
4.7 °C
10-11-2019  15:15:00
3.02 °C
Abs-Feuchte
(Aussen-T/F)
4.95 g/m*3
10-11-2019  01:05:00
6.2 g/m*3
10-11-2019  22:50:00
5.69 g/m*3
Windchill
(Aussen-T/F)
-0.22 C
10-11-2019  06:45:00
4.7 C
10-11-2019  15:15:00
2.98 C

Die Daten stammen von einer Davis Vantage Pro 2 Wetter-Station und werden unter Linux mit der Software wview2wettercgi und aufbereitet. Alle Angaben erfolgen ohne Gewähr für ihre Vollständigkeit oder Richtigkeit.
Kontakt: Rainer Krienke krienke@uni-koblenz.de . Meine Webseiten an der Uni Koblenz oder privat.
Version: $Revision: 0.78 $